Vertical_Velocity
-2 -0 1 2 3 4 4 4 3 1 -1 -4 -7 1 14 26 19 12 9 12 17 18 17 14 6 -0 -3 -3 -3 -3 -3 -2 -1 -1 -0 1 0 -1 -3 -3 -2 -1 -0 -0 0 1 2 3 4 4 3 1 1 1 1 1 -1 3 7 6 1 -1 0 1 3 4 4 3 2
-3 -1 1 2 3 4 3 3 1 -1 -4 -7 -4 10 23 28 22 16 13 16 14 11 8 8 2 -2 -4 -2 -3 -3 -3 -2 -1 -1 -1 -0 -1 -2 -3 -3 -2 -1 -0 0 0 1 2 3 3 3 2 1 1 1 1 1 -1 1 6 10 4 1 0 2 3 4 3 3 2
-4 -2 -0 2 3 3 3 2 -0 -2 -5 -6 4 16 25 26 21 16 12 11 10 8 5 3 -1 -4 -4 -3 -3 -3 -2 -2 -1 -1 -1 -1 -2 -2 -3 -2 -1 -0 0 0 1 1 2 2 2 2 1 1 1 1 1 1 -1 0 4 11 6 3 1 2 3 4 3 3 2
-4 -3 -1 1 2 3 3 0 -1 -4 -5 -4 8 18 23 21 17 12 9 8 12 13 11 8 3 -1 -3 -3 -2 -2 -1 -1 -1 -2 -2 -2 -2 -2 -2 -1 -1 0 1 1 1 1 2 2 2 2 1 1 1 0 0 0 -0 -0 1 6 5 2 1 3 3 3 3 2 1
-4 -4 -2 -0 1 3 4 -0 -3 -6 -6 -1 13 20 20 14 12 8 7 12 19 20 18 17 12 7 2 -0 -1 -1 -1 -1 -1 -2 -2 -2 -2 -2 -1 -1 -0 0 1 1 1 1 1 2 2 2 2 1 1 0 -0 -0 -0 -1 -1 2 1 0 0 3 3 3 2 2 1
-4 -4 -2 -0 1 3 2 0 -4 -7 -4 9 22 23 18 11 9 6 4 6 15 22 26 25 18 13 9 6 2 -0 -1 -1 -1 -1 -1 -1 -1 -1 -1 -0 0 1 1 1 1 1 1 2 2 2 2 2 1 0 -0 -0 -0 -1 1 6 4 1 1 3 3 3 2 1 0
-3 -3 -2 -0 1 2 3 4 -3 -4 1 18 26 25 20 15 9 7 5 2 5 15 24 26 14 12 14 16 6 1 -0 0 -0 -0 -1 -1 -1 -0 -0 0 1 1 1 1 1 1 2 2 3 3 3 2 1 0 -1 -1 -0 2 8 21 17 9 2 2 2 2 1 0 -0
-3 -2 -2 -1 0 2 4 6 1 -0 3 12 16 20 21 20 14 12 11 8 6 7 11 16 8 7 10 13 4 1 1 1 0 -0 -1 -0 -0 0 0 0 1 1 1 1 1 2 2 3 3 3 3 2 1 -0 -1 -0 1 3 10 26 25 15 4 1 1 1 1 -0 -0
-3 -3 -2 -2 -1 1 3 2 1 -0 -0 -0 3 13 22 24 19 16 13 10 6 3 4 10 7 4 3 10 7 4 1 1 -0 -1 -1 -0 0 0 1 1 0 0 0 1 2 2 2 3 3 3 2 2 1 -0 -0 2 3 3 7 18 22 15 6 1 1 0 0 -0 -0
-2 -2 -2 -3 -1 -1 -1 -2 -1 -1 -2 -1 6 16 22 21 16 11 8 6 4 3 4 9 7 2 2 14 15 8 1 -1 -2 -2 -1 -0 0 0 0 0 0 0 1 2 3 2 2 2 2 2 2 2 1 0 1 3 2 2 5 12 17 14 7 1 0 0 -0 0 0
-2 -2 -2 -2 -1 2 5 8 5 1 0 4 11 16 16 14 10 6 4 3 3 3 5 9 9 5 3 6 11 6 -1 -3 -2 -1 -0 0 0 0 0 0 0 0 1 2 2 2 1 1 1 2 2 2 1 1 1 2 1 1 4 8 14 12 6 1 0 0 0 0 0
-1 -2 -1 -0 4 15 23 21 11 5 3 6 7 7 7 7 7 6 4 3 3 3 4 7 10 8 3 -2 1 -1 -2 -3 -1 -0 0 1 1 0 0 0 1 1 1 1 1 1 1 1 1 1 2 2 1 1 1 1 -0 1 3 6 10 9 5 1 1 0 0 1 1
0 -1 -1 5 14 24 28 18 9 6 6 6 2 2 3 6 5 5 5 3 4 4 4 4 6 6 3 -2 -4 -4 -3 -1 -0 1 1 1 1 1 0 1 1 2 2 1 2 2 2 1 1 2 2 2 0 0 0 -0 0 1 2 4 7 6 4 2 1 1 1 2 1
1 -0 3 14 23 24 18 9 5 5 6 6 4 4 6 8 5 5 6 8 8 5 3 1 4 5 4 -1 -3 -3 -1 0 1 1 1 1 1 1 1 1 2 2 2 2 2 2 2 2 2 4 4 3 0 -1 -1 -0 1 1 1 2 4 4 3 2 2 2 2 1 1
1 2 7 18 28 28 21 13 8 8 10 9 9 12 14 13 4 3 7 13 9 5 1 0 2 3 2 -2 -2 -1 0 1 2 2 2 1 1 1 2 2 2 2 2 2 2 2 2 2 4 6 6 4 -0 -1 -0 1 1 1 1 1 2 3 4 3 3 2 1 0 0
-2 -1 3 12 17 18 17 15 14 17 18 13 11 13 15 12 1 0 6 13 9 5 2 -1 -1 -1 -1 -1 -0 1 2 2 2 2 1 1 1 2 2 3 3 3 3 3 3 3 3 3 4 4 3 1 -1 -0 1 1 1 1 1 1 3 4 4 4 2 1 0 -0 0
-5 -4 -2 1 2 3 4 6 8 11 14 15 7 6 7 6 -1 -2 1 8 8 6 2 -2 -3 -2 -1 1 2 2 2 2 1 1 0 1 1 2 3 3 3 3 3 3 4 4 4 4 2 0 -0 -1 -0 1 1 1 1 1 2 3 5 5 4 3 1 0 -0 0 1
-4 -3 -2 -1 -1 -2 -2 -1 -1 1 5 12 4 1 0 -0 -2 -2 -1 3 4 2 -0 -1 -1 0 1 2 2 1 1 -0 -0 -0 0 1 2 2 3 3 3 3 4 3 4 4 3 1 -0 0 2 3 4 4 3 1 2 2 3 5 5 4 3 1 0 0 0 1 1
-3 -2 -1 -0 -0 -1 -1 -2 -1 -0 2 5 2 0 -1 -2 -2 -2 -1 -1 -0 -1 -0 1 2 2 2 1 0 -1 -1 -1 -1 0 1 2 2 3 3 3 3 3 3 3 2 1 0 0 4 9 13 13 9 7 5 3 3 3 4 4 3 3 2 1 0 0 0 1 1
-3 -2 -1 -0 0 0 0 0 0 1 1 1 2 2 1 -1 -0 -1 -1 -2 -2 -1 1 2 3 2 1 -0 -1 -2 -1 -1 1 1 2 2 2 2 2 2 3 2 1 1 -0 -1 1 6 11 16 19 17 11 8 8 6 5 4 3 3 2 2 1 1 0 0 0 0 0
-3 -2 -1 -1 0 1 2 2 1 1 0 -0 0 1 1 -1 -0 -0 -1 -1 -0 1 2 2 2 0 -1 -2 -1 -1 0 1 2 2 2 2 2 1 1 1 3 2 0 -1 -1 -0 1 5 7 10 11 11 10 10 10 9 6 5 4 3 2 2 1 0 0 0 0 0 -0
-1 -2 -2 -1 -1 0 1 1 1 0 -0 -1 -1 -0 -0 -0 -0 0 1 1 2 2 2 1 0 -1 -1 -1 -0 0 1 2 2 2 1 1 0 -0 -0 1 2 2 1 -1 -0 0 0 1 1 1 3 5 8 11 12 11 9 6 4 3 2 1 0 -0 -0 0 0 0 -0
-1 -1 -1 -2 -1 -1 -1 -0 -0 -1 -1 -1 -1 -1 -0 1 1 2 2 3 3 2 2 1 0 -0 0 1 1 2 2 2 1 1 -0 -1 -2 -2 -1 1 2 2 1 -0 -0 0 0 1 0 0 1 4 8 11 13 12 9 6 4 3 2 1 0 -0 0 0 0 0 0
-1 0 1 -3 -2 -2 -2 -2 -2 -2 -1 -1 -1 -0 1 1 2 2 2 2 2 1 1 1 1 1 2 2 2 2 2 1 0 -1 -1 -0 0 -0 -1 -0 0 1 0 0 0 0 0 0 0 1 3 5 9 11 12 10 7 5 3 2 1 1 0 0 0 0 0 0 1
-2 -1 -2 -3 -3 -3 -3 -3 -2 -2 -1 -0 -0 0 1 1 2 2 2 2 1 1 1 1 2 2 2 1 1 -0 -1 -1 -1 0 3 5 3 1 -1 -0 0 0 0 1 1 0 -0 0 2 3 5 7 9 10 9 6 4 3 3 2 1 1 0 0 0 0 0 0 1
-1 -2 -2 -3 -3 -3 -3 -2 -1 -1 0 0 1 1 1 1 2 2 1 1 1 1 1 1 1 1 1 1 6 6 3 -2 -2 1 4 8 3 0 -0 0 1 1 1 1 0 -0 -0 2 5 6 7 8 8 7 5 3 3 3 2 2 1 0 0 0 0 0 0 1 1
-1 -1 -1 -1 -2 -2 -1 -0 -0 0 1 1 1 1 1 1 1 1 1 1 1 1 1 1 1 -0 0 4 11 14 12 7 3 1 1 3 1 0 0 0 0 1 1 1 0 0 2 6 7 7 7 6 5 4 3 3 3 2 2 1 0 0 0 0 0 1 1 1 1
-1 -1 -1 -0 -1 -0 -0 0 1 1 1 1 1 1 1 1 1 1 1 1 1 1 1 1 0 -0 -1 -0 2 5 8 11 7 3 0 -0 -0 -0 -0 -0 2 5 8 9 6 5 6 7 7 6 5 4 3 3 2 3 2 1 1 0 0 0 1 1 1 1 1 1 1
-0 0 -0 0 0 0 0 0 1 1 0 0 0 -0 -0 -0 -0 -0 0 1 1 1 0 0 -0 -0 -1 -1 -2 -1 0 3 3 3 2 3 4 2 -0 -0 4 8 11 12 10 8 7 7 6 5 4 3 3 2 2 2 1 1 1 0 1 1 1 1 1 1 1 1 1
-1 -0 0 1 1 1 1 1 1 0 0 -0 -0 -1 -1 -1 -1 -1 -1 -1 -1 -1 -1 -0 0 0 0 1 1 0 0 0 1 1 1 1 1 0 -0 0 4 7 9 10 9 8 6 5 4 4 4 3 2 2 1 1 1 1 1 1 1 1 1 1 1 1 1 1 1
-2 -1 0 1 1 1 1 0 1 1 1 0 0 -0 -0 -0 -1 -2 -3 -5 -5 -5 -3 -2 -1 -1 -0 0 1 1 1 1 0 -0 -1 -1 -1 -1 -0 1 4 6 7 8 7 6 5 4 4 4 3 2 2 1 1 1 1 0 0 0 1 1 1 1 1 1 1 1 1
-1 0 1 1 1 1 0 -0 1 1 2 1 1 1 1 0 -1 -3 -4 -4 0 4 4 1 -1 -2 -2 -1 -0 -0 -0 -1 -1 -1 -1 -1 -1 -0 1 2 4 6 6 7 6 6 5 5 4 4 3 2 1 1 0 0 0 0 0 0 1 1 1 1 1 1 1 1 1
-0 -0 0 -0 -0 -0 -0 -0 -0 0 0 0 1 1 1 -0 -2 -2 -1 1 8 13 14 11 4 0 -1 2 2 0 -1 -2 -2 -1 -1 -0 0 1 2 4 5 6 7 7 7 6 6 5 4 3 2 1 1 0 0 -0 -0 0 0 1 1 1 1 1 1 1 1 1 1
-0 -0 -0 -1 -1 -1 -1 -1 -2 -1 1 3 5 6 6 5 5 6 8 10 11 12 12 11 6 1 -1 -0 -1 -2 -2 -2 -1 -0 1 2 3 4 4 5 6 7 7 8 7 6 4 3 2 1 1 0 -0 -0 -0 0 0 0 1 1 1 1 1 1 1 1 1 2 2
0 -0 -0 -1 -1 -1 -1 -2 -2 1 4 6 8 10 10 10 9 9 10 11 9 6 5 4 1 -0 -2 -2 -2 -2 -2 -1 1 2 3 4 4 5 5 6 7 7 7 6 5 4 3 1 1 0 -0 -0 -0 0 0 1 1 1 1 1 1 1 1 1 1 1 2 2 2
-0 -0 -0 -1 -1 -1 -1 -1 -0 1 3 4 4 6 8 7 6 5 6 9 7 3 -0 -1 -0 -1 -1 -2 -0 1 2 3 4 4 4 4 4 5 5 6 6 6 5 4 2 1 1 -0 -0 -0 -0 0 0 1 1 1 1 1 1 1 1 1 1 1 1 1 2 1 1
0 -1 -1 -1 -1 -0 1 1 1 2 2 2 1 3 5 6 6 6 7 10 8 4 -1 -1 -0 -0 -0 1 5 6 7 6 5 5 4 4 4 4 4 4 4 3 2 1 0 -0 -0 -0 -0 0 0 1 1 1 1 1 1 1 1 1 1 1 1 2 1 1 1 1 1
4 1 -1 -2 -1 0 1 2 2 2 2 2 1 2 3 6 7 8 9 12 10 6 1 -0 0 1 3 6 9 9 8 6 5 5 4 4 3 3 3 3 2 1 0 0 0 0 0 0 0 1 1 1 1 1 1 1 1 1 1 1 1 2 2 1 1 1 1 1 1
3 2 1 -1 -1 -1 -0 0 1 1 2 3 2 2 1 3 5 6 8 9 9 6 3 2 2 3 6 8 8 7 6 5 4 4 4 4 3 2 2 2 1 1 1 2 1 1 1 1 1 1 1 1 1 1 1 1 2 2 1 1 2 2 1 1 1 1 1 1 1
0 1 2 2 2 2 1 -0 -0 1 2 3 2 2 1 1 2 3 4 4 4 4 2 1 2 3 4 4 5 6 6 5 4 3 3 3 2 2 2 1 1 1 1 2 2 1 1 1 1 1 1 1 2 2 2 1 2 1 1 1 1 1 1 1 1 1 1 1 0
-1 -0 1 3 6 6 6 4 3 3 3 3 2 1 0 0 0 1 1 1 1 1 1 1 2 2 1 1 3 4 5 4 4 3 3 2 2 2 1 1 0 0 1 1 1 1 1 1 1 1 1 1 2 2 2 1 1 1 1 1 1 1 1 1 1 1 1 1 1
Height
5553 5553 5554 5554 5556 5558 5561 5564 5568 5571 5575 5579 5583 5589 5594 5598 5600 5603 5606 5611 5617 5622 5626 5628 5630 5633 5636 5639 5642 5645 5648 5651 5654 5656 5659 5661 5664 5666 5668 5670 5672 5674 5677 5679 5681 5683 5685 5688 5689 5691 5693 5694 5695 5697 5699 5700 5700 5701 5703 5704 5705 5706 5708 5709 5710 5711 5712 5714 5715
5551 5552 5552 5553 5554 5557 5560 5563 5567 5570 5574 5578 5583 5588 5592 5595 5599 5601 5604 5608 5614 5619 5623 5627 5630 5633 5635 5638 5641 5644 5646 5649 5652 5654 5657 5660 5662 5664 5666 5668 5670 5673 5675 5677 5679 5682 5684 5686 5688 5689 5691 5692 5694 5695 5697 5698 5699 5700 5701 5702 5703 5704 5706 5707 5708 5709 5710 5712 5714
5549 5550 5551 5552 5554 5557 5559 5563 5566 5570 5574 5578 5582 5586 5590 5594 5597 5599 5602 5605 5612 5618 5622 5626 5629 5631 5634 5637 5639 5642 5644 5647 5650 5653 5656 5658 5660 5663 5664 5667 5669 5671 5674 5676 5678 5680 5682 5684 5686 5688 5689 5691 5692 5694 5695 5696 5697 5698 5699 5700 5701 5702 5704 5704 5706 5707 5709 5710 5712
5548 5549 5550 5552 5554 5556 5559 5563 5566 5570 5573 5577 5581 5584 5588 5591 5595 5598 5601 5606 5613 5618 5622 5626 5628 5631 5634 5635 5638 5640 5643 5646 5649 5652 5654 5657 5659 5661 5663 5665 5667 5670 5672 5674 5676 5679 5680 5683 5684 5686 5687 5689 5690 5692 5693 5694 5695 5696 5698 5699 5700 5700 5701 5703 5704 5705 5707 5709 5710
5547 5549 5550 5552 5554 5557 5559 5563 5566 5569 5573 5578 5582 5585 5586 5589 5593 5597 5601 5607 5613 5617 5621 5624 5627 5630 5633 5634 5637 5639 5642 5645 5648 5650 5653 5655 5657 5659 5661 5664 5666 5668 5671 5673 5675 5677 5679 5681 5683 5684 5686 5687 5689 5690 5691 5692 5694 5694 5696 5697 5698 5699 5699 5701 5702 5704 5705 5707 5709
5546 5548 5549 5551 5554 5557 5559 5562 5566 5569 5574 5579 5584 5585 5587 5589 5593 5597 5600 5604 5609 5615 5620 5623 5625 5628 5632 5634 5635 5638 5641 5644 5647 5649 5652 5654 5656 5658 5660 5662 5665 5667 5669 5672 5674 5676 5678 5679 5681 5683 5684 5686 5687 5688 5689 5690 5692 5693 5694 5696 5697 5697 5698 5699 5700 5702 5704 5706 5707
5545 5547 5549 5552 5554 5557 5559 5563 5566 5569 5574 5580 5583 5586 5588 5590 5593 5597 5601 5605 5608 5612 5618 5621 5622 5626 5631 5634 5635 5637 5640 5643 5646 5648 5650 5653 5655 5657 5659 5661 5664 5666 5669 5671 5673 5674 5676 5678 5680 5682 5683 5684 5686 5687 5688 5689 5690 5691 5693 5695 5696 5696 5696 5698 5699 5701 5703 5704 5706
5545 5547 5549 5552 5554 5557 5559 5563 5566 5569 5574 5578 5582 5585 5589 5592 5594 5598 5602 5607 5609 5611 5615 5620 5622 5624 5628 5634 5634 5636 5639 5642 5645 5647 5649 5652 5654 5656 5659 5661 5663 5665 5668 5670 5671 5673 5675 5677 5678 5680 5682 5683 5684 5685 5686 5687 5688 5689 5691 5693 5694 5694 5694 5696 5698 5700 5701 5703 5705
5545 5548 5550 5553 5555 5558 5560 5563 5566 5569 5573 5577 5580 5585 5590 5593 5595 5598 5601 5604 5607 5610 5614 5619 5622 5623 5626 5634 5635 5636 5638 5641 5644 5646 5649 5651 5653 5655 5658 5660 5663 5664 5667 5669 5670 5672 5674 5675 5677 5679 5680 5681 5682 5683 5684 5685 5686 5688 5689 5690 5692 5692 5693 5695 5697 5699 5700 5702 5704
5546 5548 5551 5554 5556 5559 5561 5564 5567 5570 5573 5577 5582 5586 5589 5591 5594 5597 5599 5602 5606 5610 5614 5619 5622 5624 5626 5630 5634 5636 5637 5640 5643 5645 5648 5650 5653 5655 5657 5660 5662 5664 5665 5667 5669 5671 5672 5674 5675 5677 5678 5679 5680 5681 5682 5683 5684 5685 5686 5687 5689 5691 5692 5694 5696 5698 5699 5701 5703
5547 5549 5552 5554 5557 5560 5563 5566 5569 5572 5575 5579 5583 5585 5587 5589 5593 5596 5599 5603 5606 5610 5614 5617 5621 5624 5627 5628 5631 5634 5636 5639 5642 5644 5647 5650 5652 5654 5657 5659 5661 5663 5664 5666 5668 5669 5671 5672 5674 5675 5677 5678 5679 5680 5681 5682 5683 5684 5684 5686 5688 5689 5691 5693 5694 5696 5698 5700 5701
5549 5550 5553 5556 5558 5563 5567 5569 5571 5574 5577 5580 5583 5584 5586 5590 5594 5597 5600 5603 5607 5610 5613 5616 5619 5624 5627 5628 5630 5633 5635 5638 5641 5644 5647 5649 5652 5654 5656 5658 5660 5661 5663 5665 5666 5668 5669 5671 5672 5674 5675 5676 5677 5678 5679 5680 5681 5682 5683 5684 5686 5688 5690 5692 5694 5695 5697 5699 5700
5550 5552 5554 5557 5561 5566 5569 5570 5572 5574 5578 5580 5583 5585 5588 5591 5594 5597 5600 5604 5608 5611 5613 5615 5619 5624 5627 5629 5630 5633 5635 5638 5641 5644 5646 5649 5651 5653 5655 5657 5659 5660 5662 5664 5665 5667 5668 5670 5671 5673 5674 5675 5676 5677 5678 5679 5679 5681 5682 5683 5685 5687 5689 5691 5693 5694 5696 5698 5699
5552 5554 5556 5561 5565 5568 5569 5570 5572 5575 5578 5581 5584 5587 5589 5593 5595 5597 5601 5606 5609 5611 5613 5616 5619 5623 5627 5629 5630 5633 5635 5638 5641 5644 5646 5648 5650 5652 5654 5656 5658 5659 5661 5662 5664 5665 5667 5668 5670 5671 5673 5674 5674 5675 5676 5676 5678 5679 5680 5682 5684 5686 5688 5690 5692 5693 5695 5696 5698
5555 5556 5559 5563 5566 5569 5571 5572 5574 5577 5580 5583 5586 5589 5592 5596 5596 5597 5601 5606 5609 5610 5613 5616 5620 5624 5626 5628 5630 5633 5636 5638 5641 5643 5645 5647 5649 5651 5654 5655 5657 5658 5660 5661 5663 5664 5665 5667 5669 5670 5671 5672 5673 5673 5674 5675 5676 5678 5679 5681 5683 5685 5687 5689 5690 5692 5694 5695 5696
5559 5559 5560 5562 5564 5566 5569 5572 5575 5579 5583 5584 5587 5590 5593 5596 5596 5597 5601 5606 5609 5612 5615 5618 5621 5624 5625 5628 5631 5634 5636 5638 5641 5643 5645 5647 5649 5651 5653 5654 5656 5657 5659 5660 5662 5663 5664 5666 5667 5668 5669 5670 5671 5671 5672 5674 5675 5676 5678 5680 5682 5684 5686 5687 5689 5690 5692 5693 5695
5561 5562 5563 5564 5566 5568 5570 5572 5574 5577 5580 5584 5586 5589 5593 5595 5596 5598 5601 5605 5610 5614 5617 5619 5621 5624 5626 5629 5631 5634 5636 5638 5640 5642 5644 5646 5648 5650 5652 5653 5655 5656 5658 5659 5660 5662 5663 5664 5665 5666 5667 5668 5669 5669 5671 5672 5674 5675 5677 5679 5681 5683 5684 5686 5687 5689 5690 5692 5694
5564 5565 5567 5568 5569 5571 5572 5574 5576 5578 5581 5584 5587 5589 5592 5594 5597 5599 5602 5606 5610 5613 5616 5619 5621 5624 5627 5629 5631 5634 5635 5637 5639 5641 5644 5645 5647 5649 5651 5652 5654 5655 5657 5658 5659 5660 5661 5662 5663 5664 5665 5666 5667 5669 5670 5671 5673 5674 5676 5678 5679 5681 5683 5684 5686 5688 5689 5691 5692
5567 5568 5569 5571 5572 5573 5575 5577 5579 5581 5583 5586 5588 5591 5593 5596 5598 5601 5604 5607 5610 5613 5616 5619 5622 5624 5627 5629 5631 5633 5635 5637 5639 5641 5643 5645 5647 5649 5650 5652 5653 5654 5656 5657 5658 5658 5659 5660 5661 5663 5664 5665 5667 5668 5669 5670 5672 5674 5675 5677 5678 5680 5681 5683 5685 5687 5688 5689 5691
5570 5571 5572 5573 5574 5576 5578 5579 5581 5583 5585 5588 5590 5592 5595 5598 5600 5603 5605 5608 5611 5614 5617 5620 5623 5625 5627 5629 5631 5633 5635 5637 5639 5641 5643 5645 5646 5648 5649 5651 5653 5654 5655 5656 5657 5657 5658 5659 5661 5662 5664 5664 5665 5666 5668 5669 5671 5672 5674 5675 5677 5679 5681 5682 5684 5685 5687 5688 5689
5574 5574 5575 5576 5578 5579 5580 5582 5584 5586 5588 5589 5592 5594 5597 5599 5602 5604 5607 5610 5613 5615 5618 5621 5623 5625 5627 5629 5631 5633 5635 5637 5639 5641 5643 5644 5646 5648 5649 5651 5652 5653 5654 5655 5656 5657 5657 5658 5659 5660 5661 5662 5664 5665 5666 5668 5670 5671 5673 5674 5676 5678 5680 5681 5683 5684 5686 5687 5688
5578 5578 5579 5579 5580 5582 5583 5585 5586 5588 5590 5592 5594 5596 5599 5601 5604 5606 5609 5611 5614 5617 5619 5621 5624 5626 5628 5630 5632 5634 5635 5638 5639 5641 5643 5644 5646 5647 5649 5650 5651 5652 5653 5654 5655 5655 5656 5656 5657 5658 5659 5661 5662 5664 5665 5667 5669 5670 5672 5674 5675 5677 5679 5680 5682 5683 5684 5686 5687
5580 5582 5583 5583 5584 5584 5586 5588 5589 5591 5593 5594 5597 5599 5601 5604 5606 5608 5610 5613 5615 5618 5620 5622 5624 5626 5629 5630 5632 5634 5636 5638 5639 5641 5643 5644 5645 5647 5648 5649 5649 5650 5652 5653 5654 5654 5655 5656 5656 5657 5658 5659 5661 5662 5664 5666 5667 5669 5671 5673 5674 5676 5678 5679 5681 5682 5684 5685 5686
5583 5584 5586 5586 5587 5588 5589 5590 5592 5594 5595 5597 5599 5601 5603 5605 5608 5610 5612 5614 5616 5619 5621 5623 5625 5627 5629 5631 5633 5635 5637 5638 5640 5641 5643 5644 5645 5646 5647 5648 5649 5649 5650 5651 5652 5653 5654 5655 5656 5657 5658 5659 5660 5662 5663 5665 5666 5668 5670 5672 5674 5675 5677 5679 5680 5681 5683 5684 5685
5586 5587 5588 5589 5590 5590 5592 5593 5594 5596 5598 5599 5601 5603 5605 5607 5609 5612 5614 5616 5618 5620 5622 5624 5626 5628 5630 5632 5634 5636 5638 5639 5640 5641 5643 5644 5645 5646 5646 5647 5648 5649 5650 5651 5652 5653 5654 5654 5655 5656 5657 5658 5659 5661 5663 5664 5665 5667 5669 5671 5673 5675 5676 5678 5679 5680 5682 5683 5684
5590 5590 5591 5592 5593 5594 5595 5596 5598 5599 5600 5602 5604 5605 5607 5609 5611 5614 5615 5618 5619 5621 5623 5625 5627 5629 5631 5634 5636 5638 5639 5640 5640 5641 5643 5644 5644 5645 5645 5647 5647 5648 5649 5650 5651 5652 5653 5654 5655 5656 5657 5658 5659 5661 5662 5664 5665 5667 5669 5671 5673 5674 5676 5677 5679 5679 5681 5682 5683
5593 5594 5594 5595 5595 5597 5598 5599 5600 5602 5603 5604 5606 5608 5609 5611 5613 5615 5617 5619 5621 5623 5624 5626 5628 5630 5633 5637 5639 5639 5640 5641 5642 5642 5642 5642 5643 5644 5645 5646 5647 5648 5649 5650 5651 5652 5653 5654 5655 5656 5657 5658 5659 5660 5662 5664 5665 5667 5669 5670 5672 5673 5675 5676 5678 5679 5680 5681 5682
5597 5597 5598 5598 5599 5599 5600 5601 5603 5604 5605 5607 5608 5610 5612 5613 5615 5617 5619 5621 5622 5624 5626 5627 5629 5631 5634 5636 5637 5638 5640 5641 5642 5642 5641 5641 5642 5643 5644 5645 5646 5647 5649 5651 5652 5653 5653 5654 5655 5656 5657 5658 5659 5660 5662 5664 5665 5666 5668 5670 5671 5673 5674 5676 5677 5678 5679 5680 5681
5600 5601 5601 5601 5602 5602 5603 5604 5605 5606 5608 5609 5611 5612 5614 5615 5617 5619 5620 5622 5624 5625 5627 5628 5630 5632 5634 5635 5635 5636 5638 5639 5640 5640 5640 5641 5642 5643 5643 5644 5645 5647 5649 5650 5652 5653 5653 5654 5654 5655 5656 5658 5659 5660 5662 5663 5665 5666 5668 5669 5671 5672 5674 5675 5676 5677 5679 5679 5680
5603 5604 5604 5604 5604 5605 5606 5607 5608 5609 5610 5612 5613 5614 5616 5618 5619 5620 5622 5623 5625 5626 5628 5629 5631 5633 5634 5634 5635 5636 5637 5637 5638 5639 5639 5640 5641 5642 5643 5643 5644 5646 5647 5649 5650 5651 5652 5653 5654 5655 5656 5657 5659 5660 5661 5663 5664 5666 5668 5669 5670 5672 5673 5674 5675 5676 5677 5678 5679
5605 5605 5605 5606 5607 5607 5608 5609 5610 5612 5613 5614 5616 5617 5618 5619 5620 5622 5623 5624 5626 5629 5630 5631 5632 5633 5633 5634 5634 5635 5636 5637 5638 5638 5639 5640 5641 5641 5642 5643 5644 5645 5647 5648 5649 5650 5651 5652 5654 5655 5656 5657 5659 5660 5661 5663 5664 5666 5667 5669 5670 5671 5672 5674 5674 5675 5676 5677 5678
5607 5608 5608 5609 5609 5609 5610 5611 5613 5614 5616 5617 5618 5619 5620 5621 5622 5624 5625 5627 5629 5632 5633 5633 5633 5633 5634 5634 5635 5635 5636 5637 5637 5638 5639 5639 5640 5641 5642 5643 5644 5645 5646 5647 5648 5649 5651 5652 5653 5654 5656 5657 5658 5660 5661 5663 5664 5665 5667 5668 5669 5670 5672 5673 5674 5674 5675 5676 5677
5610 5610 5610 5611 5611 5612 5613 5614 5615 5616 5618 5619 5620 5621 5622 5623 5624 5625 5627 5629 5631 5632 5634 5635 5635 5635 5634 5635 5635 5636 5636 5636 5637 5638 5639 5640 5640 5641 5642 5643 5644 5645 5646 5647 5648 5649 5650 5652 5653 5654 5655 5657 5658 5659 5661 5662 5664 5665 5666 5668 5669 5670 5671 5672 5673 5674 5674 5675 5676
5613 5613 5613 5614 5614 5615 5615 5616 5617 5618 5619 5621 5622 5623 5624 5624 5626 5627 5629 5629 5631 5632 5633 5634 5635 5634 5634 5634 5635 5635 5636 5637 5637 5638 5639 5640 5640 5641 5642 5643 5644 5644 5645 5646 5648 5649 5650 5651 5653 5654 5655 5657 5658 5659 5661 5662 5664 5665 5666 5667 5668 5669 5670 5671 5672 5673 5674 5674 5675
5615 5615 5616 5616 5617 5617 5618 5618 5619 5620 5621 5622 5623 5624 5624 5625 5626 5626 5627 5628 5629 5630 5631 5632 5633 5633 5633 5634 5634 5635 5636 5637 5638 5638 5639 5640 5640 5641 5642 5643 5644 5644 5645 5646 5647 5649 5650 5651 5653 5654 5655 5657 5658 5659 5661 5662 5664 5665 5666 5667 5668 5669 5669 5670 5671 5672 5673 5673 5674
5617 5618 5618 5619 5619 5619 5620 5621 5621 5621 5622 5622 5622 5623 5624 5624 5624 5624 5625 5626 5628 5629 5630 5631 5632 5632 5633 5634 5634 5635 5636 5637 5638 5638 5639 5639 5640 5641 5642 5643 5643 5644 5645 5646 5647 5648 5650 5651 5653 5654 5655 5657 5658 5659 5661 5662 5664 5664 5665 5666 5667 5668 5669 5669 5670 5671 5671 5672 5673
5620 5620 5620 5620 5620 5621 5622 5623 5622 5622 5622 5623 5623 5623 5623 5624 5624 5624 5625 5627 5628 5629 5630 5631 5632 5633 5634 5634 5635 5635 5636 5636 5637 5638 5639 5639 5640 5641 5641 5642 5643 5644 5644 5645 5647 5649 5650 5652 5653 5654 5656 5657 5659 5660 5661 5662 5663 5664 5664 5665 5666 5667 5668 5668 5669 5670 5670 5671 5672
5623 5622 5622 5622 5622 5622 5623 5624 5623 5623 5623 5624 5624 5624 5624 5625 5625 5626 5627 5628 5629 5630 5631 5631 5632 5633 5634 5634 5635 5635 5635 5636 5637 5638 5638 5639 5640 5640 5641 5642 5643 5644 5644 5645 5647 5649 5650 5652 5654 5655 5656 5657 5659 5659 5660 5661 5662 5663 5664 5665 5665 5666 5667 5668 5668 5669 5669 5670 5671
5623 5623 5623 5623 5623 5623 5624 5624 5624 5624 5624 5624 5625 5625 5625 5626 5626 5627 5628 5629 5630 5630 5631 5632 5633 5634 5634 5634 5634 5635 5635 5636 5637 5638 5638 5639 5639 5640 5641 5642 5643 5644 5646 5647 5648 5649 5650 5652 5653 5655 5656 5657 5658 5659 5660 5661 5662 5663 5664 5664 5665 5665 5666 5667 5667 5668 5669 5669 5670
5623 5623 5624 5624 5624 5624 5624 5624 5624 5624 5625 5625 5626 5626 5626 5627 5627 5627 5628 5629 5629 5630 5631 5632 5633 5633 5634 5634 5635 5635 5635 5636 5636 5637 5638 5639 5639 5640 5641 5642 5643 5644 5646 5648 5649 5649 5650 5652 5653 5654 5655 5657 5658 5659 5659 5660 5661 5662 5663 5664 5664 5665 5665 5666 5667 5667 5668 5668 5669
5623 5623 5624 5624 5624 5624 5624 5624 5624 5625 5626 5626 5626 5627 5627 5627 5627 5628 5628 5629 5629 5630 5631 5631 5632 5633 5633 5634 5635 5635 5636 5636 5636 5636 5637 5638 5639 5640 5641 5642 5643 5644 5645 5647 5648 5649 5650 5652 5653 5654 5655 5656 5657 5658 5659 5660 5661 5661 5662 5663 5663 5664 5665 5665 5666 5666 5667 5667 5668